Regional Weather Roundup
Issued by NWS

Home | Current Version | Previous Version | Graphics & Text | Print | Product List | Glossary On
Versions: 1 2 3 4 5 6 7 8 9 10 11 12 13 14 15 16 17 18 19 20 21 22 23 24 25 26 27 28 29 30 31 32 33 34 35 36 37 38 39 40 41 42 43 44 45 46 47 48 49 50
493
ASUS44 KLIX 180610
RWRLA
LOUISIANA WEATHER ROUNDUP
NATIONAL WEATHER SERVICE NEW ORLEANS LA
100 AM CDT FRI APR 18 2014

NOTE: "FAIR" INDICATES FEW OR NO CLOUDS BELOW 12,000 FEET WITH NO
      SIGNIFICANT WEATHER AND/OR OBSTRUCTIONS TO VISIBILITY.
      SKY/WX - SKY CONDITION AND SIGNIFICANT WEATHER.
      TMP - AIR TEMPERATURE.    DP   - DEWPOINT TEMPERATURE.
      RH  - RELATIVE HUMIDITY.  PRES - PRESSURE.
      HX  - HEAT INDEX.         WCI  - WIND CHILL INDEX.

*  THESE STATIONS ARE NOT NWS OR FAA STATIONS AND ARE NOT UNDER
   NWS QUALITY CONTROL.

LAZ040-048-061>063-065-066-069-180700-
SOUTHEAST LOUISIANA

CITY           SKY/WX    TMP DP  RH WIND       PRES   REMARKS
N.O. AUDUBON     N/A     66 N/A N/A MISG        N/A
6HR MIN TEMP:  63; 6HR MAX TEMP:  66;

N.O. INTL ARPT MOCLDY    64  59  83 E10G22    30.10F
6HR MIN TEMP:  63; 6HR MAX TEMP:  64; 6HR PCP: TRACE;

N.O. LAKEFRONT FAIR      63  60  90 E21       30.10F
6HR MIN TEMP:  63; 6HR MAX TEMP:  64; 6HR PCP:  0.02;

N.O. DOWNTOWN* CLOUDY    63  55  77 NE3       30.10F
6HR MIN TEMP:  63; 6HR MAX TEMP:  63; 6HR PCP:  0.01;

SLIDELL        CLOUDY    62  58  86 E7        30.11F
6HR MIN TEMP:  61; 6HR MAX TEMP:  62; 6HR PCP:  0.03;

BATON ROUGE    CLOUDY    63  57  81 VRB3      30.13S
6HR MIN TEMP:  61; 6HR MAX TEMP:  64;

BOOTHVILLE     CLOUDY    63  61  93 NE10      30.09F
6HR MIN TEMP:  62; 6HR MAX TEMP:  64; 6HR PCP:  0.37;

BELLE CHASSE   FAIR      63  58  83 E16       30.09F
6HR MIN TEMP:  62; 6HR MAX TEMP:  63;

BOGALUSA*        N/A     64  56  75 E6        30.15S
6HR MIN TEMP:  62; 6HR MAX TEMP:  65;

GALLIANO*      CLOUDY    64  61  88 NE14G20   30.09F
6HR MIN TEMP:  63; 6HR MAX TEMP:  64;

NEW ROADS*     CLOUDY    60  57  89 N6        30.14F
6HR MIN TEMP:  60; 6HR MAX TEMP:  64;

GONZALES*      CLOUDY    64  60  88 CALM      30.12R
6HR MIN TEMP:  63; 6HR MAX TEMP:  64;

HAMMOND*       CLOUDY    61  55  82 CALM      30.13F
HOUMA*           N/A     63  58  83 E10G18    30.10S
6HR MIN TEMP:  63; 6HR MAX TEMP:  64;

PORT FOURCHON* CLOUDY    64  61  88 NE15G22   30.10S

$$

LAZ041-044-053-054-180700-
SOUTHWEST LOUISIANA

CITY           SKY/WX    TMP DP  RH WIND       PRES   REMARKS
LAKE CHARLES   CLOUDY    57  54  89 N6        30.14F
6HR MIN TEMP:  55; 6HR MAX TEMP:  63;

LAFAYETTE      CLOUDY    61  58  90 N6        30.14R
6HR MIN TEMP:  59; 6HR MAX TEMP:  63;

PATTERSON      CLOUDY    63  59  88 NE6         N/A
6HR MIN TEMP:  63; 6HR MAX TEMP:  63;

SALT POINT       N/A     65  61  87 CALM      30.10S
6HR MIN TEMP:  65; 6HR MAX TEMP:  66;

NEW IBERIA     CLOUDY    63  59  87 N6        30.13S
6HR MIN TEMP:  63; 6HR MAX TEMP:  65;

CHENAULT AIRPK FAIR      56  53  88 N5        30.15F
6HR MIN TEMP:  55; 6HR MAX TEMP:  64;


$$

LAZ027-028-180700-
CENTRAL LOUISIANA

CITY           SKY/WX    TMP DP  RH WIND       PRES   REMARKS
FORT POLK      FAIR      54  51  90 N3        30.17S
6HR MIN TEMP:  52; 6HR MAX TEMP:  60;

ALEXANDRIA INT FAIR      53  52  96 CALM      30.16S
6HR MIN TEMP:  53; 6HR MAX TEMP:  63;

ALEXANDRIA     MOCLDY    54  52  93 CALM      30.17S
6HR MIN TEMP:  53; 6HR MAX TEMP:  61;


$$

LAZ001-002-180700-
NORTHWEST LOUISIANA

CITY           SKY/WX    TMP DP  RH WIND       PRES   REMARKS
SHREVEPORT     MOCLDY    54  49  83 CALM      30.17S
6HR MIN TEMP:  53; 6HR MAX TEMP:  66;

BARKSDALE AFB  FAIR      54  51  90 N1        30.18S
6HR MIN TEMP:  54; 6HR MAX TEMP:  66;

DTN SHREVEPORT FAIR      54  49  83 CALM      30.18S
6HR MIN TEMP:  53; 6HR MAX TEMP:  65;


$$

LAZ014-016-180700-
NORTHEAST LOUISIANA

CITY           SKY/WX    TMP DP  RH WIND       PRES   REMARKS
MONROE         MOCLDY    54  52  93 CALM      30.21R
6HR MIN TEMP:  53; 6HR MAX TEMP:  61;

TALLULAH       MOCLDY    60  54  80 CALM      30.19S
6HR MIN TEMP:  59; 6HR MAX TEMP:  66;


$$




USA.gov is the U.S. government's official web portal to all federal, state and local government web resources and services.